Weather History for Grand Forks, ND

Change the Weather History Date:

Tuesday, January 29, 2013

  Actual Average Record
Temperature  
Mean Temperature 17 °F 7 °F  
Max Temperature 23 °F 18 °F 43 °F (1992)
Min Temperature 11 °F -3 °F -40 °F (2004)
Degree Days  
Heating Degree Days 48 58  
Month to date heating degree days 1597 1695  
Since 1 July heating degree days 5355 5554  
Cooling Degree Days 0 0  
Month to date cooling degree days 0 0  
Year to date cooling degree days 0 0  
Moisture  
Dew Point 16 °F    
Average Humidity 87    
Maximum Humidity 100    
Minimum Humidity 73    
Precipitation  
Precipitation T in 0.02 in 0.31 in (1987)
Month to date precipitation 0.42 0.52  
Year to date precipitation 0.42 0.52  
Snow  
Snow T in 0.30 in 3.70 in (1987)
Month to date snowfall 3.9 10.1  
Since 1 July snowfall 18.9 30.0  
Snow Depth 4.00 in    
Sea Level Pressure  
Sea Level Pressure 29.79 in    
Wind  
Wind Speed 14 mph (NNW)    
Max Wind Speed 24 mph    
Max Gust Speed 30 mph    
Visibility 7 miles    
Events Snow    
T = Trace of Precipitation, MM = Missing Value Source: NWS Daily Summary

Daily Weather History Graph

Daily Weather History Graph

Search for Another Location

Airport:

Trip Planner

Search our weather history database for the weather conditions in past years. The results will help you decide how hot, cold, wet, or windy it might be!

Date:

Astronomy

Jan. 29, 2013 Rise Set
Actual Time 7:59 AM CST 5:24 PM CST
Civil Twilight 7:26 AM CST 5:58 PM CST
Nautical Twilight 6:48 AM CST 6:35 PM CST
Astronomical Twilight 6:12 AM CST 7:12 PM CST
Moon 8:40 PM CST (1/29) 8:41 AM CST (1/29)
Length of Visible Light 10h 32m
Length of Day
9h 25m
Waning Gibbous, 93% of the Moon is Illuminated
Jan 29
Waning Gibbous
Feb 3
Last Quarter
Feb 10
New
Feb 17
First Quarter
Feb 25
Full

Hourly Weather History & Observations

Time (CST) Temp. Windchill Dew Point Humidity Pressure Visibility Wind Dir Wind Speed Gust Speed Precip Events Conditions
12:53 AM 19.9 °F 8.6 °F 17.1 °F 89% 29.75 in 10.0 mi NNW 10.4 mph - N/A   Overcast
1:14 AM 19.4 °F 7.9 °F 17.6 °F 93% 29.68 in 9.0 mi North 10.4 mph - N/A   Overcast
1:23 AM 19.4 °F 7.2 °F 17.6 °F 93% 29.68 in 7.0 mi NNW 11.5 mph - N/A   Overcast
1:33 AM 19.4 °F 7.9 °F 19.4 °F 100% 29.69 in 4.0 mi NNW 10.4 mph - N/A   Overcast
1:39 AM 19.4 °F 7.9 °F 19.4 °F 100% 29.68 in 1.8 mi NNW 10.4 mph - N/A   Overcast
1:50 AM 19.4 °F 9.5 °F 19.4 °F 100% 29.68 in 0.8 mi NNW 8.1 mph - N/A   Mist
1:53 AM 19.9 °F 10.1 °F 19.0 °F 96% 29.72 in 0.8 mi NNW 8.1 mph - N/A   Mist
2:39 AM 21.2 °F 11.7 °F 19.4 °F 93% 29.68 in 3.0 mi NNW 8.1 mph - N/A   Overcast
2:53 AM 21.0 °F 9.9 °F 19.9 °F 96% 29.72 in 4.0 mi NNW 10.4 mph - N/A   Overcast
3:53 AM 21.9 °F 12.5 °F 19.9 °F 92% 29.73 in 6.0 mi NNW 8.1 mph - N/A   Overcast
4:12 AM 21.2 °F 11.7 °F 19.4 °F 93% 29.68 in 6.0 mi NNW 8.1 mph - N/A   Overcast
4:53 AM 21.0 °F 9.9 °F 18.0 °F 88% 29.73 in 6.0 mi NNW 10.4 mph - N/A   Overcast
5:12 AM 19.4 °F 7.9 °F 17.6 °F 93% 29.69 in 7.0 mi NNW 10.4 mph - N/A   Overcast
5:38 AM 19.4 °F 9.5 °F 17.6 °F 93% 29.68 in 8.0 mi NW 8.1 mph - N/A   Overcast
5:53 AM 19.9 °F 9.3 °F 17.1 °F 89% 29.73 in 8.0 mi NW 9.2 mph - N/A   Overcast
6:46 AM 19.4 °F 7.2 °F 15.8 °F 86% 29.68 in 10.0 mi NNW 11.5 mph - N/A   Overcast
6:53 AM 19.9 °F 8.6 °F 17.1 °F 89% 29.74 in 9.0 mi NNW 10.4 mph - N/A   Overcast
7:53 AM 21.0 °F 9.9 °F 17.1 °F 85% 29.75 in 9.0 mi NNW 10.4 mph - N/A   Overcast
8:53 AM 21.9 °F 9.8 °F 18.0 °F 85% 29.77 in 6.0 mi NNW 12.7 mph - N/A   Overcast
9:18 AM 21.2 °F 8.9 °F 17.6 °F 86% 29.72 in 6.0 mi NNW 12.7 mph - N/A   Overcast
9:46 AM 21.2 °F 8.9 °F 19.4 °F 93% 29.74 in 6.0 mi NNW 12.7 mph - N/A   Overcast
9:53 AM 21.9 °F 9.8 °F 19.0 °F 89% 29.79 in 6.0 mi NNW 12.7 mph - N/A   Overcast
10:53 AM 23.0 °F 10.1 °F 19.0 °F 85% 29.81 in 4.0 mi NNW 15.0 mph - N/A   Overcast
11:53 AM 23.0 °F 9.2 °F 18.0 °F 81% 29.81 in 6.0 mi North 17.3 mph - N/A   Haze
12:17 PM 21.2 °F 7.3 °F 17.6 °F 86% 29.76 in 6.0 mi North 16.1 mph - N/A   Overcast
12:53 PM 23.0 °F 11.1 °F 19.0 °F 85% 29.82 in 6.0 mi NNW 12.7 mph - N/A   Overcast
1:53 PM 23.0 °F 11.1 °F 18.0 °F 81% 29.83 in 5.0 mi NNW 12.7 mph - 0.00 in Snow Light Snow
2:53 PM 21.9 °F 7.8 °F 17.1 °F 82% 29.84 in 5.0 mi North 17.3 mph - 0.00 in Snow Light Snow
3:30 PM 19.4 °F 5.5 °F 15.8 °F 86% 29.80 in 9.0 mi NNW 15.0 mph - 0.00 in   Mostly Cloudy
3:53 PM 19.9 °F 5.7 °F 15.1 °F 81% 29.86 in 9.0 mi NNW 16.1 mph - 0.00 in   Mostly Cloudy
4:53 PM 18.0 °F 4.8 °F 12.9 °F 81% 29.91 in 10.0 mi North 12.7 mph - N/A   Mostly Cloudy
5:53 PM 17.1 °F 2.5 °F 10.9 °F 77% 29.93 in 10.0 mi North 15.0 mph - N/A   Mostly Cloudy
6:53 PM 15.1 °F -0.6 °F 10.0 °F 80% 29.94 in 10.0 mi North 16.1 mph - N/A   Overcast
7:53 PM 15.1 °F -1.6 °F 9.0 °F 77% 29.96 in 10.0 mi North 18.4 mph - N/A   Overcast
8:53 PM 15.1 °F 1.8 °F 9.0 °F 77% 30.01 in 9.0 mi NNW 11.5 mph - 0.00 in   Overcast
9:53 PM 14.0 °F -2.0 °F 8.1 °F 77% 29.99 in 10.0 mi NNW 16.1 mph - 0.00 in   Overcast
10:53 PM 12.9 °F -5.7 °F 7.0 °F 77% 29.98 in 10.0 mi NNW 21.9 mph 27.6 mph 0.00 in   Overcast
11:21 PM 12.2 °F -6.7 °F 6.8 °F 79% 29.93 in 9.0 mi North 21.9 mph 28.8 mph 0.00 in Snow Light Snow
11:53 PM 10.9 °F -7.5 °F 5.0 °F 77% 29.99 in 9.0 mi NNW 19.6 mph - 0.00 in Snow Light Snow